GFSNW_prec_snow_372.txt.gz
Snowfall_Accumulation
0.0 0.0 0.0 0.0 0.0 0.0 0.0 0.0 11.6 0.0 0.0 5.4 10.4 11.0 4.6 0.4 0.2 0.0 0.7 0.7 0.8 1.5 1.2 2.1 0.1 0.4 0.4 1.3 2.5 1.9 1.8 5.7 3.8 2.3 2.6 2.1 4.0 3.2 4.2 8.3 7.7 7.5 5.6 4.7
0.0 0.0 0.0 0.0 0.0 0.0 0.0 4.4 2.7 0.0 0.0 10.5 6.7 1.1 0.0 2.1 1.9 0.6 2.3 1.8 2.4 1.8 1.1 5.0 0.0 2.6 1.9 0.4 1.9 3.4 2.7 5.0 3.9 4.2 2.4 2.2 5.3 4.5 3.7 4.8 8.6 8.1 6.3 2.3
0.0 0.0 0.0 0.0 0.0 0.0 0.0 4.5 10.6 0.0 0.0 0.0 3.5 4.3 1.9 1.0 1.1 2.1 2.1 2.4 0.1 2.5 0.8 0.1 4.0 2.9 3.4 2.2 2.1 1.7 6.4 6.5 4.4 4.2 8.7 10.1 7.7 3.8 2.8 5.0 10.8 4.8 2.8 1.1
0.0 0.0 0.0 0.0 0.0 0.0 0.0 5.5 7.1 0.0 9.2 1.9 3.6 4.9 4.4 2.4 3.0 0.4 1.8 2.5 1.9 3.7 6.2 2.2 1.8 0.7 0.9 0.6 2.0 2.8 4.5 5.3 1.0 2.1 2.9 7.0 5.6 3.9 4.0 6.1 3.6 5.7 3.5 1.4
0.0 0.0 0.0 0.0 0.0 0.0 0.0 6.9 5.8 3.6 3.6 0.9 1.9 2.7 3.0 1.4 1.6 3.1 2.7 2.3 1.4 2.4 6.0 3.8 5.7 6.4 3.4 2.9 2.3 5.7 6.5 7.5 6.3 6.9 3.5 3.8 4.0 2.0 2.8 2.6 2.7 2.4 3.1 2.8
0.0 0.0 0.0 0.0 0.0 0.0 0.0 2.9 1.6 13.6 6.6 1.3 2.7 2.7 1.3 2.4 2.0 0.6 0.6 1.5 4.3 5.0 1.3 0.3 1.0 2.3 4.7 5.2 3.9 3.7 10.6 11.7 15.3 12.0 2.6 4.6 4.8 4.8 4.4 5.3 6.3 5.5 4.6 4.0
0.0 0.0 0.0 0.0 0.0 0.0 0.0 0.0 4.2 33.1 17.8 4.0 0.9 0.1 0.5 1.1 0.4 2.8 0.0 0.2 10.0 0.8 0.1 2.5 3.9 4.3 6.8 7.2 6.3 1.9 8.3 12.9 19.2 20.0 15.1 20.6 6.6 2.5 2.6 4.6 6.0 6.6 4.8 2.6
0.0 0.0 0.0 0.0 0.0 0.0 0.0 0.0 3.1 42.4 30.4 4.5 1.4 0.7 1.0 0.2 0.0 1.0 1.2 0.0 0.1 2.3 6.6 13.7 13.2 8.1 6.1 3.7 2.1 3.3 4.0 10.9 19.2 20.0 13.2 8.4 5.2 4.9 6.4 6.2 6.4 5.1 3.8 1.5
0.0 0.0 0.0 0.0 0.0 0.0 0.0 0.0 0.0 32.5 48.5 14.6 0.3 0.9 0.5 4.3 3.9 3.2 0.4 0.0 0.0 4.1 15.8 20.6 19.2 6.8 1.0 1.5 0.7 0.5 3.0 7.4 21.7 21.3 17.3 9.1 5.6 6.5 8.0 4.4 5.2 3.1 2.7 1.8
0.0 0.0 0.0 0.0 0.0 0.0 0.0 0.0 0.0 9.5 63.7 5.5 0.0 6.8 7.4 2.6 3.0 8.6 1.7 1.2 2.9 3.7 20.3 21.9 12.6 5.8 1.9 1.6 2.6 2.0 3.8 10.1 21.8 14.2 18.6 6.8 4.7 4.2 5.5 7.1 5.8 3.6 4.0 3.0
0.0 0.0 0.0 0.0 0.0 0.0 0.0 0.0 0.0 0.0 48.4 8.3 0.0 0.0 1.8 4.2 5.9 15.5 6.8 12.0 9.7 14.9 22.4 19.5 6.7 8.3 1.5 2.3 2.2 4.9 4.3 6.8 8.8 10.5 21.0 13.2 2.1 1.7 5.5 6.8 3.5 3.5 3.4 3.9
0.0 0.0 0.0 0.0 0.0 0.0 0.0 1.9 0.0 0.0 14.5 9.7 0.0 0.0 0.0 0.0 0.2 5.0 18.5 12.3 3.2 9.5 15.0 12.2 13.4 14.7 9.8 3.4 4.5 1.3 5.9 6.6 7.9 6.7 7.9 6.6 5.0 6.4 6.2 3.3 2.0 1.6 1.8 2.3
0.0 0.0 0.0 0.0 0.0 0.0 0.0 0.0 0.0 0.0 25.7 12.6 4.4 1.3 0.4 0.0 0.6 0.9 25.2 22.1 6.4 12.5 8.4 21.2 23.0 23.1 12.1 9.7 5.5 1.0 3.1 2.3 4.2 2.8 2.7 0.8 3.9 2.3 1.6 1.6 2.5 1.9 1.2 1.0
0.0 0.0 0.0 0.0 0.0 0.0 0.0 0.0 0.0 0.0 28.7 41.2 7.6 0.2 0.1 0.0 0.2 2.5 4.7 7.1 7.6 12.4 15.2 36.2 35.3 24.5 8.6 7.6 3.0 2.5 3.3 3.0 5.2 6.3 3.6 3.6 4.6 2.6 2.9 3.7 4.5 3.8 2.5 3.6
0.0 0.0 0.0 0.0 0.0 0.0 0.0 0.0 0.0 0.0 9.8 42.3 15.1 2.9 0.9 0.0 0.1 1.6 3.9 5.7 10.0 14.8 21.3 28.8 24.0 10.9 12.1 13.4 9.8 8.6 3.1 3.8 5.4 5.4 1.8 4.6 3.6 2.6 3.1 2.9 3.8 3.5 2.6 3.1
0.0 0.0 0.0 0.0 0.0 0.0 0.0 14.4 0.0 0.0 0.8 33.4 32.9 4.0 0.5 0.0 0.3 1.1 2.2 3.3 5.1 12.1 20.1 21.3 12.1 6.1 10.2 19.6 10.9 2.5 0.9 1.4 3.7 3.9 2.5 2.9 2.5 1.9 1.6 2.7 1.8 1.2 1.5 2.9
0.0 0.0 0.0 0.0 0.0 0.0 6.9 18.9 3.6 0.0 0.0 48.6 56.0 28.9 4.3 1.6 1.7 3.3 4.2 4.3 5.5 13.3 22.2 20.1 11.7 10.1 14.8 22.5 10.7 2.3 1.4 1.6 2.9 2.6 2.2 3.0 1.5 1.9 2.4 1.9 1.5 2.4 2.4 1.7
0.0 0.0 0.0 0.0 0.0 3.2 5.5 3.4 4.1 2.7 18.2 42.2 77.0 39.2 13.9 3.7 4.3 7.6 8.0 10.1 10.1 25.5 18.8 14.5 8.2 8.8 16.1 21.5 3.4 2.0 1.2 2.2 3.9 3.6 3.0 5.4 3.9 3.2 3.5 1.8 2.7 1.9 2.1 2.0
0.0 0.0 0.0 5.0 5.5 4.8 5.2 5.1 4.4 4.5 11.7 75.0 50.4 26.7 15.7 7.3 4.5 7.1 10.6 13.2 27.0 20.4 21.7 10.0 7.6 17.7 21.5 10.7 3.8 1.7 2.9 5.2 4.7 4.8 3.8 3.1 2.8 3.5 3.4 2.7 2.2 3.0 4.8 3.6
0.0 8.3 12.2 26.8 9.6 3.9 5.2 5.6 20.6 37.9 52.4 49.8 31.8 15.3 12.2 8.1 10.6 12.5 17.1 24.4 28.9 32.4 18.9 12.6 20.9 15.1 9.0 6.3 7.3 6.8 6.5 7.0 6.8 9.8 7.6 4.7 6.1 5.2 5.7 6.3 6.4 6.2 6.4 6.4
11.8 30.8 29.9 11.2 4.9 6.0 16.8 50.8 51.2 42.4 37.3 20.1 14.7 9.5 11.2 9.2 18.7 20.3 23.5 31.5 28.9 30.0 16.7 14.1 17.1 13.9 7.6 5.8 7.7 8.1 8.1 8.1 7.8 8.1 8.6 10.1 12.1 12.0 9.2 7.3 9.9 8.2 8.5 8.9
14.3 13.3 17.7 16.7 40.0 50.1 51.0 45.3 23.7 16.5 13.9 14.5 10.3 7.8 10.1 15.9 17.1 26.9 31.0 28.0 26.0 22.0 11.2 17.5 13.9 8.9 7.3 9.1 8.9 9.1 9.0 8.6 7.9 8.1 10.0 8.5 8.7 9.4 9.2 9.7 9.8 9.0 8.7 7.8
19.4 41.7 51.2 42.9 43.4 46.9 34.7 18.8 13.5 13.7 11.8 12.9 11.8 12.7 13.7 16.8 23.4 31.9 28.0 26.6 19.3 12.1 15.0 11.7 9.5 7.1 6.9 8.7 10.2 10.3 10.4 8.4 8.8 9.1 7.0 7.2 7.3 7.0 6.7 6.7 5.7 5.7 5.5 6.3
41.7 48.4 41.7 27.0 23.9 13.8 11.9 9.6 9.8 10.6 13.4 14.9 15.1 15.9 18.1 16.5 24.3 23.6 25.1 18.0 11.6 18.6 13.0 9.9 8.4 8.5 7.9 7.3 8.0 8.1 8.2 8.5 8.3 10.7 10.6 8.4 7.0 6.1 5.4 5.9 6.6 5.9 5.3 6.0
57.8 42.0 27.6 16.1 10.0 7.8 10.0 10.3 10.2 12.4 15.3 18.5 19.1 19.5 18.7 21.1 25.5 18.8 12.8 17.2 15.7 13.1 10.9 9.8 9.9 9.8 9.4 8.8 8.0 7.2 6.7 7.4 7.6 7.6 8.1 9.1 6.7 4.9 4.2 5.5 5.6 5.4 5.4 4.4
45.8 32.2 14.9 7.5 6.9 7.7 6.8 9.0 9.6 10.9 12.8 14.4 19.0 18.7 19.6 18.3 16.5 15.6 12.3 12.5 11.3 11.5 11.7 11.6 10.6 9.7 9.1 9.5 9.1 8.5 8.5 8.6 8.8 8.6 9.4 8.5 8.6 9.2 9.0 6.9 6.0 5.8 6.2 4.9
38.4 14.7 8.6 9.0 6.9 6.9 7.0 6.8 7.0 7.2 9.2 11.0 12.8 17.1 12.1 12.9 13.7 10.5 8.2 10.5 11.7 10.8 8.8 8.2 8.6 8.1 8.0 7.6 6.8 6.5 5.9 5.7 5.9 7.0 8.0 9.3 10.0 9.4 7.7 7.8 9.7 8.9 8.6 7.9

GFSNW_prec_snow_375.txt.gz
Snowfall_Accumulation
0.0 0.0 0.0 0.0 0.0 0.0 0.0 0.0 11.6 0.0 0.0 5.4 10.4 11.0 4.6 0.4 0.2 0.0 0.7 0.7 0.8 1.5 1.2 2.1 0.1 0.4 0.4 1.3 2.5 1.9 1.8 5.7 3.8 2.3 2.6 2.1 4.0 3.2 4.2 8.3 7.7 7.5 5.6 4.7
0.0 0.0 0.0 0.0 0.0 0.0 0.0 4.4 2.7 0.0 0.0 10.5 6.7 1.1 0.0 2.1 1.9 0.6 2.3 1.8 2.4 1.8 1.1 5.0 0.0 2.6 1.9 0.4 1.9 3.4 2.7 5.0 3.9 4.2 2.4 2.2 5.3 4.5 3.7 4.8 8.6 8.1 6.3 2.3
0.0 0.0 0.0 0.0 0.0 0.0 0.0 4.5 10.6 0.0 0.0 0.0 3.5 4.3 1.9 1.0 1.1 2.1 2.1 2.4 0.1 2.5 0.8 0.1 4.0 2.9 3.4 2.2 2.1 1.7 6.4 6.5 4.4 4.2 8.7 10.1 7.7 3.8 2.8 5.0 10.8 4.8 2.8 1.1
0.0 0.0 0.0 0.0 0.0 0.0 0.0 5.5 7.1 0.0 9.2 1.9 3.6 4.9 4.4 2.4 3.0 0.5 1.8 2.5 1.9 3.7 6.2 2.2 1.8 0.7 0.9 0.6 2.0 2.8 4.5 5.3 1.0 2.1 2.9 7.0 5.6 3.9 4.0 6.1 3.6 5.7 3.5 1.4
0.0 0.0 0.0 0.0 0.0 0.0 0.0 7.0 5.8 3.6 3.6 0.9 1.9 2.7 3.0 1.4 1.6 3.2 2.8 2.3 1.4 2.4 6.0 3.8 5.7 6.4 3.4 2.9 2.3 5.7 6.5 7.5 6.3 6.9 3.5 3.8 4.0 2.0 2.8 2.6 2.7 2.4 3.1 2.8
0.0 0.0 0.0 0.0 0.0 0.0 0.0 2.9 1.6 13.6 6.6 1.3 2.7 2.7 1.3 2.4 2.0 0.6 0.6 1.5 4.4 5.2 1.4 0.3 1.0 2.3 4.7 5.2 3.9 3.7 10.6 11.7 15.3 12.0 2.6 4.6 4.8 4.8 4.4 5.3 6.3 5.5 4.6 4.0
0.0 0.0 0.0 0.0 0.0 0.0 0.0 0.0 4.2 33.1 17.8 4.0 0.9 0.1 0.5 1.1 0.4 2.8 0.0 0.4 10.3 0.8 0.1 2.5 3.9 4.3 6.8 7.2 6.3 1.9 8.3 12.9 19.2 20.0 15.1 20.8 6.6 2.5 2.6 4.6 6.0 6.6 4.8 2.6
0.0 0.0 0.0 0.0 0.0 0.0 0.0 0.0 3.1 42.4 30.4 4.5 1.4 0.7 1.0 0.2 0.0 1.1 1.3 0.2 0.1 2.3 6.6 13.8 13.2 8.1 6.1 3.7 2.1 3.3 4.0 10.9 19.2 20.0 13.2 8.4 5.2 4.9 6.4 6.2 6.4 5.1 3.8 1.5
0.0 0.0 0.0 0.0 0.0 0.0 0.0 0.0 0.0 32.5 48.5 14.6 0.3 0.9 0.5 4.3 3.9 3.2 0.4 0.0 0.0 4.1 15.8 20.8 19.2 6.8 1.0 1.5 0.7 0.5 3.0 7.4 21.7 22.0 18.0 9.4 5.6 6.5 8.0 4.4 5.2 3.1 2.7 1.8
0.0 0.0 0.0 0.0 0.0 0.0 0.0 0.0 0.0 9.5 64.7 5.5 0.0 7.0 7.5 2.6 3.0 8.6 1.7 1.2 2.9 3.7 20.3 21.9 12.6 5.8 1.9 1.6 2.6 2.0 3.9 10.1 22.1 14.7 19.1 6.8 4.7 4.2 5.5 7.1 5.8 3.6 4.0 3.0
0.0 0.0 0.0 0.0 0.0 0.0 0.0 0.0 0.0 0.0 50.8 8.3 0.0 0.0 1.8 4.2 5.9 16.2 6.8 12.4 10.9 16.3 24.0 20.9 7.4 8.7 1.6 2.3 2.2 4.9 4.3 6.8 9.0 10.5 21.4 13.8 2.1 1.7 5.5 6.8 3.5 3.5 3.4 3.9
0.0 0.0 0.0 0.0 0.0 0.0 0.0 3.7 3.8 0.0 18.8 12.8 1.8 1.4 0.0 0.0 0.2 5.0 19.2 12.5 3.2 9.5 15.0 12.8 13.6 15.0 9.9 3.4 4.5 1.3 5.9 6.6 7.9 6.7 7.9 6.6 5.0 6.4 6.2 3.3 2.0 1.6 1.8 2.3
0.0 0.0 0.0 0.0 0.0 0.0 0.0 0.0 0.0 0.0 28.2 15.0 6.5 3.5 1.9 0.0 0.6 1.3 26.0 22.6 6.4 12.5 8.4 21.2 23.5 23.9 12.6 9.9 5.5 1.0 3.1 2.3 4.2 2.8 2.8 0.8 3.9 2.3 1.6 1.6 2.5 1.9 1.2 1.0
0.0 0.0 0.0 0.0 0.0 0.0 0.0 0.0 0.0 0.0 29.5 42.4 8.8 1.2 0.6 0.1 0.3 3.1 4.7 8.1 7.6 12.4 16.3 37.6 36.7 25.4 8.6 8.0 3.1 2.5 3.3 3.0 5.2 6.3 4.2 4.0 4.9 2.9 3.1 3.8 4.5 3.8 2.5 3.6
0.0 0.0 0.0 0.0 0.0 0.0 0.0 0.0 0.0 0.0 9.9 42.7 15.6 3.1 1.0 0.0 0.1 1.7 4.2 6.3 10.9 16.0 22.6 30.2 25.2 11.6 12.5 13.9 10.4 9.3 3.6 4.3 5.6 5.7 2.1 5.0 4.1 3.1 3.5 3.2 4.2 3.7 2.7 3.1
0.0 0.0 0.0 0.0 0.0 0.0 0.0 14.4 0.0 0.0 0.8 33.4 33.0 4.1 0.5 0.0 0.3 1.1 2.2 3.3 5.4 12.6 20.8 21.9 12.8 6.4 10.2 20.5 11.5 2.8 1.1 1.6 4.1 4.3 2.9 3.5 3.0 2.3 1.8 2.9 2.0 1.4 1.5 2.9
0.0 0.0 0.0 0.0 0.0 0.0 6.9 19.0 3.7 0.0 0.0 48.6 56.0 29.0 4.3 1.6 1.7 3.3 4.2 4.3 5.5 13.4 22.5 20.5 12.0 10.3 14.8 23.6 11.4 2.5 1.4 1.7 2.9 2.7 2.4 3.4 1.9 2.2 2.5 1.9 1.5 2.5 2.4 1.7
0.0 0.0 0.0 0.0 0.0 3.2 5.5 3.4 4.1 2.7 18.2 42.2 77.0 39.2 13.9 3.7 4.3 7.6 8.0 10.1 10.1 25.5 18.9 14.6 8.2 9.0 16.3 21.9 3.8 2.2 1.3 2.3 4.0 3.7 3.0 5.4 3.9 3.3 3.5 1.8 2.7 1.9 2.1 2.0
0.0 0.0 0.0 5.0 5.5 4.8 5.4 5.1 4.4 4.5 11.7 75.0 50.4 26.7 15.7 7.3 4.5 7.1 10.6 13.2 27.0 20.4 21.8 10.1 7.7 17.8 21.6 10.8 3.8 1.7 2.9 5.2 4.7 4.8 3.8 3.1 2.8 3.5 3.4 2.7 2.2 3.0 4.8 3.6
0.0 8.3 12.2 26.8 9.6 3.9 5.2 5.6 20.6 37.9 52.4 49.8 31.8 15.3 12.2 8.1 10.6 12.5 17.1 24.4 28.9 32.5 19.0 12.7 21.0 15.3 9.1 6.3 7.3 6.8 6.5 7.0 6.8 9.8 7.6 4.7 6.1 5.2 5.7 6.3 6.4 6.2 6.4 6.4
11.8 30.8 29.9 11.2 4.9 6.0 16.8 50.8 51.2 42.4 37.3 20.1 14.7 9.5 11.2 9.2 18.7 20.3 23.5 31.5 28.9 30.0 16.7 14.2 17.2 14.1 7.6 5.8 7.7 8.1 8.1 8.1 7.8 8.1 8.6 10.2 12.1 12.0 9.2 7.3 9.9 8.2 8.5 8.9
14.3 13.3 17.7 16.7 40.0 50.1 51.0 45.3 23.7 16.5 13.9 14.5 10.3 7.8 10.1 15.9 17.1 26.9 31.0 28.0 26.0 22.1 11.3 17.6 14.1 9.0 7.3 9.1 8.9 9.1 9.0 8.6 7.9 8.1 10.0 8.5 8.7 9.4 9.2 9.7 9.8 9.0 8.7 7.8
19.4 41.7 51.2 42.9 43.4 46.9 34.7 18.8 13.5 13.7 11.8 12.9 11.8 12.7 13.7 16.8 23.4 31.9 28.0 26.6 19.4 12.1 15.0 11.8 9.6 7.1 6.9 8.7 10.2 10.3 10.4 8.4 8.8 9.1 7.0 7.2 7.3 7.0 6.7 6.7 5.7 5.7 5.5 6.3
41.7 48.4 41.7 27.0 23.9 13.8 11.9 9.6 9.8 10.6 13.4 14.9 15.1 15.9 18.1 16.5 24.3 23.6 25.1 18.0 11.6 18.6 13.0 9.9 8.4 8.5 7.9 7.3 8.0 8.1 8.2 8.5 8.3 10.7 10.6 8.4 7.0 6.1 5.4 5.9 6.6 5.9 5.3 6.0
57.8 42.0 27.6 16.1 10.0 7.8 10.0 10.3 10.2 12.4 15.3 18.5 19.1 19.5 18.7 21.1 25.5 18.8 12.8 17.2 15.7 13.2 10.9 9.8 9.9 9.8 9.4 8.8 8.0 7.2 6.7 7.4 7.6 7.6 8.1 9.1 6.7 4.9 4.2 5.5 5.6 5.4 5.4 4.4
45.8 32.2 14.9 7.5 6.9 7.7 6.8 9.0 9.6 10.9 12.8 14.4 19.0 18.7 19.6 18.3 16.5 15.6 12.3 12.5 11.3 11.5 11.7 11.6 10.6 9.7 9.1 9.5 9.1 8.5 8.5 8.6 8.8 8.6 9.4 8.5 8.6 9.2 9.0 6.9 6.0 5.8 6.2 4.9
38.4 14.7 8.6 9.0 6.9 6.9 7.0 6.8 7.0 7.2 9.2 11.0 12.8 17.1 12.1 12.9 13.7 10.5 8.2 10.5 11.7 10.8 8.8 8.2 8.6 8.2 8.0 7.6 6.8 6.5 5.9 5.7 5.9 7.0 8.0 9.3 10.0 9.4 7.7 7.8 9.7 8.9 8.6 7.9

GFSNW_prec_snow_378.txt.gz
Snowfall_Accumulation
0.0 0.0 0.0 0.0 0.0 0.0 0.0 0.0 11.6 0.0 0.0 5.4 10.4 11.0 4.6 0.4 0.2 0.0 0.7 0.7 0.8 1.5 1.2 2.1 0.1 0.4 0.4 1.3 2.5 1.9 1.8 5.7 3.8 2.3 2.6 2.1 4.0 3.2 4.2 8.3 7.7 7.5 5.6 4.7
0.0 0.0 0.0 0.0 0.0 0.0 0.0 4.4 2.7 0.0 0.0 10.5 6.7 1.1 0.0 2.1 1.9 0.6 2.3 1.8 2.4 1.8 1.1 5.0 0.0 2.6 1.9 0.4 1.9 3.4 2.7 5.0 3.9 4.2 2.4 2.2 5.3 4.5 3.7 4.8 8.6 8.1 6.3 2.3
0.0 0.0 0.0 0.0 0.0 0.0 0.0 4.5 10.7 0.2 0.2 0.0 3.5 4.3 1.9 1.0 1.1 2.1 2.1 2.4 0.1 2.5 0.8 0.1 4.0 2.9 3.4 2.2 2.1 1.7 6.4 6.5 4.4 4.2 8.7 10.1 7.7 3.8 2.8 5.0 10.8 4.8 2.8 1.1
0.0 0.0 0.0 0.0 0.0 0.0 0.0 5.5 7.1 0.0 9.4 2.0 3.6 4.9 4.4 2.4 3.0 0.5 1.8 2.6 1.9 3.7 6.2 2.2 1.8 0.7 0.9 0.6 2.0 2.8 4.5 5.3 1.0 2.1 2.9 7.0 5.6 3.9 4.0 6.1 3.6 5.7 3.5 1.4
0.0 0.0 0.0 0.0 0.0 0.0 0.0 7.0 5.8 3.6 3.6 0.9 1.9 2.7 3.0 1.4 1.6 3.3 3.1 2.4 1.4 2.4 6.1 3.9 5.7 6.6 3.5 2.9 2.3 5.7 6.5 7.5 6.3 6.9 3.5 3.8 4.0 2.0 2.8 2.6 2.7 2.4 3.1 2.8
0.0 0.0 0.0 0.0 0.0 0.0 0.0 2.9 1.6 13.6 6.6 1.3 2.7 2.7 1.3 2.4 2.0 0.6 0.7 1.6 4.6 5.8 1.6 0.3 1.0 2.3 4.7 5.2 3.9 3.7 10.6 11.7 15.3 12.0 2.6 4.6 4.8 4.8 4.4 5.3 6.3 5.5 4.6 4.0
0.0 0.0 0.0 0.0 0.0 0.0 0.0 0.0 4.2 33.1 17.9 4.0 0.9 0.1 0.5 1.1 0.4 2.8 0.0 0.5 10.7 0.8 0.1 2.5 3.9 4.3 6.8 7.2 6.3 1.9 8.3 12.9 19.2 20.0 15.1 20.8 6.6 2.5 2.6 4.6 6.0 6.6 4.8 2.6
0.0 0.0 0.0 0.0 0.0 0.0 0.0 0.0 3.1 42.4 30.6 4.6 1.4 0.7 1.0 0.2 0.0 1.1 1.4 0.3 0.1 2.3 6.6 13.9 13.4 8.1 6.1 3.7 2.1 3.3 4.0 10.9 19.2 20.0 13.2 8.4 5.2 4.9 6.4 6.2 6.4 5.1 3.8 1.5
0.0 0.0 0.0 0.0 0.0 0.0 0.0 0.0 0.0 32.5 48.5 14.9 0.3 0.9 0.5 4.4 4.0 3.3 0.4 0.0 0.0 4.1 15.8 20.8 19.2 6.8 1.0 1.5 0.7 0.5 3.0 7.4 21.7 22.0 18.0 9.4 5.6 6.5 8.0 4.4 5.2 3.1 2.7 1.8
0.0 0.0 0.0 0.0 0.0 0.0 0.0 0.0 0.0 9.5 65.6 5.5 0.0 7.2 7.6 2.6 3.0 8.6 1.7 1.2 2.9 3.7 20.3 21.9 12.7 5.9 1.9 1.6 2.6 2.0 3.9 10.2 22.2 14.7 19.5 6.8 4.7 4.2 5.5 7.1 5.8 3.6 4.0 3.0
0.0 0.0 0.0 0.0 0.0 0.0 0.0 0.0 0.0 0.0 52.0 8.3 0.0 0.0 2.0 4.2 6.0 16.6 6.8 13.1 12.0 16.3 24.0 21.6 7.8 8.9 1.6 2.3 2.2 4.9 4.3 6.8 9.0 10.5 21.9 14.4 2.1 1.7 5.5 6.8 3.5 3.5 3.4 3.9
0.0 0.0 0.0 0.0 0.0 0.0 0.0 3.7 3.8 0.0 18.8 14.9 3.1 2.0 0.5 0.0 0.2 5.0 19.8 13.1 3.2 9.5 15.0 13.4 13.6 15.3 10.0 3.4 4.5 1.3 5.9 6.6 7.9 6.7 7.9 6.6 5.0 6.4 6.2 3.3 2.0 1.6 1.8 2.3
0.0 0.0 0.0 0.0 0.0 0.0 0.0 0.2 0.8 0.0 31.8 18.2 9.1 5.7 3.7 1.1 1.5 1.3 27.1 23.5 6.4 12.6 8.4 21.2 23.8 24.5 12.6 9.9 5.5 1.0 3.1 2.3 4.2 2.8 2.8 0.8 4.0 2.3 1.6 1.6 2.5 2.0 1.2 1.1
0.0 0.0 0.0 0.0 0.0 0.0 0.0 0.0 0.0 0.0 30.3 43.6 10.3 2.3 1.5 1.0 1.8 4.9 6.4 9.2 7.6 12.4 16.3 38.4 37.7 26.1 8.6 8.0 3.1 2.5 3.4 3.0 5.3 6.3 4.7 4.2 5.0 2.9 3.1 3.9 4.6 3.8 2.5 3.6
0.0 0.0 0.0 0.0 0.0 0.0 0.0 0.0 0.0 0.0 9.9 43.4 16.3 3.6 1.3 0.4 0.7 2.9 5.9 8.2 12.3 17.2 24.0 31.7 26.6 12.4 12.8 14.1 10.4 9.7 4.0 4.7 5.9 6.1 2.5 5.3 4.2 3.3 3.8 3.5 4.4 3.9 2.9 3.1
0.0 0.0 0.0 0.0 0.0 0.0 0.0 14.4 0.0 0.0 0.8 33.4 33.2 4.3 0.5 0.1 0.3 1.3 2.7 4.2 6.3 13.6 21.8 22.8 13.5 7.1 10.5 21.3 12.2 3.1 1.3 1.9 4.7 4.8 3.7 4.2 3.5 2.7 2.3 3.4 2.5 1.7 1.8 3.0
0.0 0.0 0.0 0.0 0.0 0.0 6.9 19.0 3.7 0.0 0.0 48.6 56.0 29.0 4.3 1.6 1.7 3.3 4.2 4.3 5.8 14.0 23.3 21.3 12.7 11.0 15.3 24.4 11.9 2.6 1.5 1.8 3.1 2.9 2.8 4.1 2.5 2.7 3.0 2.3 1.8 2.7 2.6 1.8
0.0 0.0 0.0 0.0 0.0 3.2 5.5 3.4 4.1 2.7 18.2 42.2 77.0 39.2 13.9 3.7 4.3 7.6 8.0 10.1 10.1 25.5 19.1 14.9 8.6 9.4 16.9 22.5 4.2 2.4 1.4 2.3 4.0 3.7 3.1 5.6 4.1 3.6 3.8 2.1 2.9 2.1 2.2 2.1
0.0 0.0 0.0 5.0 5.5 4.8 5.4 5.1 4.4 4.5 11.7 75.0 50.4 26.7 15.7 7.3 4.5 7.1 10.6 13.2 27.0 20.4 21.9 10.2 7.8 18.0 21.9 11.0 3.9 1.9 3.0 5.3 4.7 4.8 3.8 3.1 2.8 3.6 3.5 2.8 2.2 3.1 4.8 3.6
0.0 8.3 12.2 26.8 9.6 3.9 5.2 5.6 20.6 37.9 52.4 49.8 31.8 15.3 12.2 8.1 10.6 12.5 17.1 24.4 28.9 32.6 19.1 12.7 21.1 15.5 9.2 6.3 7.3 6.8 6.5 7.0 6.8 9.9 7.6 4.7 6.1 5.3 5.7 6.3 6.4 6.2 6.4 6.4
11.8 30.8 29.9 11.2 4.9 6.0 16.8 50.8 51.2 42.4 37.3 20.1 14.7 9.5 11.2 9.2 18.7 20.3 23.5 31.5 28.9 30.1 16.8 14.2 17.2 14.2 7.6 5.8 7.7 8.1 8.1 8.1 7.8 8.1 8.6 10.2 12.1 12.0 9.2 7.3 9.9 8.2 8.5 8.9
14.3 13.3 17.7 16.7 40.0 50.1 51.0 45.3 23.7 16.5 13.9 14.5 10.3 7.8 10.1 15.9 17.1 26.9 31.0 28.0 26.0 22.2 11.3 17.6 14.1 9.1 7.3 9.1 8.9 9.1 9.0 8.6 7.9 8.1 10.0 8.5 8.7 9.4 9.2 9.7 9.8 9.0 8.7 7.8
19.4 41.7 51.2 42.9 43.4 46.9 34.7 18.8 13.5 13.7 11.8 12.9 11.8 12.7 13.7 16.8 23.4 31.9 28.0 26.6 19.4 12.1 15.0 11.8 9.6 7.1 6.9 8.7 10.2 10.3 10.4 8.4 8.8 9.1 7.0 7.2 7.3 7.0 6.7 6.7 5.7 5.7 5.5 6.3
41.7 48.4 41.7 27.0 23.9 13.8 11.9 9.6 9.8 10.6 13.4 14.9 15.1 15.9 18.1 16.5 24.3 23.6 25.1 18.0 11.6 18.6 13.0 10.0 8.5 8.5 7.9 7.3 8.0 8.1 8.2 8.5 8.3 10.7 10.6 8.4 7.0 6.1 5.4 5.9 6.6 5.9 5.3 6.0
57.8 42.0 27.6 16.1 10.0 7.8 10.0 10.3 10.2 12.4 15.3 18.5 19.1 19.5 18.7 21.1 25.5 18.8 12.8 17.2 15.7 13.2 11.0 9.9 9.9 9.8 9.5 8.8 8.0 7.2 6.7 7.4 7.6 7.6 8.1 9.1 6.7 4.9 4.2 5.5 5.6 5.4 5.4 4.4
45.8 32.2 14.9 7.5 6.9 7.7 6.8 9.0 9.6 10.9 12.8 14.4 19.0 18.7 19.6 18.3 16.5 15.6 12.3 12.5 11.3 11.6 11.8 11.6 10.6 9.7 9.1 9.5 9.1 8.5 8.5 8.6 8.8 8.6 9.4 8.5 8.6 9.2 9.0 6.9 6.0 5.8 6.2 4.9
38.4 14.7 8.6 9.0 6.9 6.9 7.0 6.8 7.0 7.2 9.2 11.0 12.8 17.1 12.1 12.9 13.7 10.5 8.2 10.5 11.8 10.8 8.8 8.2 8.6 8.2 8.0 7.6 6.8 6.5 5.9 5.7 5.9 7.0 8.0 9.3 10.0 9.4 7.7 7.8 9.7 8.9 8.6 7.9

GFSNW_prec_snow_384.txt.gz
Snowfall_Accumulation
0.0 0.0 0.0 0.0 0.0 0.0 0.0 0.0 12.2 0.0 0.0 6.3 10.7 11.0 4.6 0.4 0.2 0.0 0.7 0.7 0.8 1.5 1.2 2.1 0.1 0.4 0.4 1.3 2.5 1.9 1.8 5.7 3.8 2.3 2.6 2.1 4.0 3.2 4.2 8.3 7.7 7.5 5.6 4.7
0.0 0.0 0.0 0.0 0.0 0.0 0.0 4.4 2.7 0.0 0.0 13.8 7.7 1.1 0.0 2.1 1.9 0.6 2.3 1.8 2.4 1.8 1.1 5.0 0.0 2.6 1.9 0.4 1.9 3.4 2.7 5.0 3.9 4.2 2.4 2.2 5.3 4.5 3.7 4.8 8.6 8.1 6.3 2.3
0.0 0.0 0.0 0.0 0.0 0.0 0.0 4.5 12.6 0.2 0.2 0.0 3.7 4.3 1.9 1.0 1.1 2.1 2.1 2.4 0.1 2.5 0.8 0.1 4.0 2.9 3.4 2.2 2.1 1.7 6.4 6.5 4.4 4.2 8.7 10.1 7.7 3.8 2.8 5.0 10.8 4.8 2.8 1.1
0.0 0.0 0.0 0.0 0.0 0.0 0.0 5.5 8.9 0.0 11.1 2.4 3.7 4.9 4.4 2.4 3.0 0.5 1.8 2.6 1.9 3.7 6.2 2.2 1.8 0.7 0.9 0.6 2.0 2.8 4.5 5.3 1.0 2.1 2.9 7.0 5.6 3.9 4.0 6.1 3.6 5.7 3.5 1.4
0.0 0.0 0.0 0.0 0.0 0.0 0.0 10.5 6.7 3.6 3.6 0.9 2.1 2.8 3.0 1.4 1.6 3.3 3.1 2.4 1.4 2.4 6.1 3.9 5.7 6.6 3.5 2.9 2.3 5.7 6.5 7.5 6.3 6.9 3.5 3.8 4.0 2.0 2.8 2.6 2.7 2.4 3.1 2.8
0.0 0.0 0.0 0.0 0.0 0.0 0.0 2.9 1.6 13.6 6.6 1.4 3.0 2.9 1.3 2.4 2.0 0.6 0.8 1.6 4.8 6.9 2.2 0.3 1.0 2.3 4.7 5.2 3.9 3.7 10.6 11.7 15.3 12.0 2.6 4.6 4.8 4.8 4.4 5.3 6.3 5.5 4.6 4.0
0.0 0.0 0.0 0.0 0.0 0.0 0.0 0.0 4.2 33.1 18.0 4.0 1.1 0.1 0.5 1.1 0.4 2.8 0.0 0.5 10.9 0.8 0.1 2.5 3.9 4.3 7.1 7.2 6.3 1.9 8.3 12.9 19.2 20.0 15.1 20.8 6.6 2.5 2.6 4.6 6.0 6.6 4.8 2.6
0.0 0.0 0.0 0.0 0.0 0.0 0.0 0.0 3.1 42.4 30.6 4.6 1.4 0.7 1.0 0.2 0.0 1.1 1.4 0.4 0.1 2.3 6.6 15.9 15.8 9.7 7.1 4.0 2.1 3.3 4.0 10.9 19.2 20.0 13.2 8.4 5.2 4.9 6.4 6.2 6.4 5.1 3.8 1.5
0.0 0.0 0.0 0.0 0.0 0.0 0.0 0.0 0.0 32.5 48.5 14.9 0.3 0.9 0.5 4.6 4.2 3.4 0.4 0.0 0.0 4.1 16.2 21.5 20.0 7.2 1.1 1.5 0.7 0.5 3.0 7.4 21.8 22.0 18.0 9.4 5.6 6.5 8.0 4.4 5.2 3.1 2.7 1.8
0.0 0.0 0.0 0.0 0.0 0.0 0.0 0.0 0.0 9.5 66.2 5.5 0.0 7.5 8.0 2.7 3.1 9.3 2.2 1.2 3.2 3.7 20.5 22.2 12.8 5.9 1.9 1.6 2.6 2.0 3.9 10.3 22.3 14.7 19.6 6.8 4.7 4.2 5.5 7.1 5.8 3.6 4.0 3.0
0.0 0.0 0.0 0.0 0.0 0.0 0.0 0.0 0.0 0.0 52.8 8.3 0.0 0.0 2.0 4.2 6.3 17.6 7.7 14.7 13.7 17.4 25.0 22.0 7.9 8.9 1.6 2.3 2.2 4.9 4.3 6.9 9.2 10.7 22.2 14.9 2.1 1.7 5.5 6.8 3.5 3.5 3.4 3.9
0.0 0.0 0.0 0.0 0.0 0.0 0.0 8.7 3.8 0.0 18.8 17.8 4.6 2.9 0.6 0.0 0.2 5.0 20.1 13.7 3.2 9.5 15.4 13.7 13.6 15.3 10.0 3.4 4.5 1.3 5.9 6.6 7.9 6.7 8.0 6.6 5.1 6.4 6.3 3.4 2.0 1.6 1.8 2.3
0.0 0.0 0.0 0.0 0.0 0.0 0.0 2.5 0.8 0.0 37.7 23.6 13.1 8.7 6.0 2.6 2.7 1.3 28.3 24.1 6.4 12.6 8.4 21.2 23.8 25.2 12.6 9.9 5.5 1.0 3.1 2.3 4.2 2.8 2.8 0.9 4.1 2.4 1.7 1.8 2.7 2.2 1.4 1.2
0.0 0.0 0.0 0.0 0.0 0.0 0.0 3.0 4.8 3.0 34.2 46.9 13.9 4.9 3.4 3.0 4.0 7.1 7.4 9.7 7.6 12.4 16.3 41.2 40.1 26.4 8.6 8.0 3.1 2.5 3.5 3.0 5.3 6.3 4.9 4.4 5.1 3.1 3.3 4.1 4.7 4.0 2.7 3.8
0.0 0.0 0.0 0.0 0.0 0.0 1.0 1.7 3.3 2.9 11.9 45.8 18.7 5.3 2.3 1.6 2.4 5.5 9.5 11.2 14.9 18.4 26.8 35.4 29.6 13.2 12.8 14.3 10.4 10.3 4.6 5.0 6.3 6.6 2.7 5.5 4.5 3.5 4.0 3.7 4.6 4.2 3.1 3.3
0.0 0.0 0.0 0.0 0.0 0.0 0.3 15.2 1.1 1.3 2.1 34.3 35.0 5.8 1.1 0.6 1.1 2.5 4.6 6.9 9.3 16.8 24.8 26.0 16.4 9.4 11.8 22.7 13.6 3.8 1.7 2.5 5.1 5.4 4.3 4.8 4.0 3.1 2.7 3.8 3.0 2.3 2.3 3.5
0.0 0.0 0.0 0.0 0.0 0.0 6.9 19.0 3.9 0.1 0.3 49.1 56.9 29.9 4.5 1.8 1.9 3.5 4.6 5.2 7.3 15.9 25.9 23.7 15.0 12.7 17.2 26.8 13.0 3.2 1.8 2.4 3.9 3.7 3.7 5.0 3.3 3.5 3.8 3.1 2.6 3.6 3.4 2.4
0.0 0.0 0.0 0.0 0.0 3.2 5.5 3.4 4.1 2.7 18.2 42.3 77.4 39.6 14.1 3.7 4.4 7.7 8.1 10.4 10.7 26.4 20.5 16.1 9.7 10.6 18.5 24.3 5.3 3.1 2.0 2.9 4.6 4.4 3.9 6.4 4.8 4.3 4.4 2.6 3.4 2.6 2.8 2.7
0.0 0.0 0.0 5.0 5.5 4.8 5.4 5.1 4.4 4.5 11.7 75.0 50.4 26.7 15.7 7.3 4.6 7.1 10.6 13.2 27.4 21.1 22.8 11.3 8.7 19.1 23.1 12.1 4.6 2.3 3.4 5.7 5.2 5.2 4.3 3.6 3.3 4.2 4.0 3.2 2.6 3.4 5.2 4.0
0.0 8.3 12.2 26.8 9.6 3.9 5.2 5.6 20.6 37.9 52.4 49.8 31.8 15.3 12.2 8.1 10.6 12.5 17.1 24.4 29.0 32.7 19.5 13.2 21.8 16.3 10.1 6.9 7.8 7.2 6.8 7.2 6.9 10.0 7.8 4.8 6.2 5.5 5.9 6.6 6.6 6.3 6.5 6.5
11.8 30.8 29.9 11.2 4.9 6.0 16.8 50.8 51.2 42.4 37.3 20.1 14.7 9.5 11.2 9.2 18.7 20.3 23.5 31.5 28.9 30.1 16.9 14.2 17.4 14.6 7.9 6.0 7.9 8.2 8.2 8.1 7.8 8.1 8.6 10.2 12.1 12.0 9.2 7.3 9.9 8.2 8.5 8.9
14.3 13.3 17.7 16.7 40.0 50.1 51.0 45.3 23.7 16.5 13.9 14.5 10.3 7.8 10.1 15.9 17.1 26.9 31.0 28.0 26.0 22.2 11.3 17.6 14.2 9.3 7.3 9.1 8.9 9.1 9.0 8.6 7.9 8.1 10.0 8.5 8.7 9.4 9.2 9.7 9.8 9.0 8.7 7.8
19.4 41.7 51.2 42.9 43.4 46.9 34.7 18.8 13.5 13.7 11.8 12.9 11.8 12.7 13.7 16.8 23.4 31.9 28.0 26.6 19.4 12.1 15.0 11.9 9.8 7.2 7.0 8.7 10.2 10.3 10.4 8.4 8.8 9.1 7.0 7.2 7.3 7.0 6.7 6.7 5.7 5.7 5.5 6.3
41.7 48.4 41.7 27.0 23.9 13.8 11.9 9.6 9.8 10.6 13.4 14.9 15.1 15.9 18.1 16.5 24.3 23.6 25.1 18.0 11.6 18.7 13.0 10.0 8.6 8.6 7.9 7.3 8.0 8.1 8.2 8.5 8.3 10.7 10.6 8.4 7.0 6.1 5.4 5.9 6.6 5.9 5.3 6.0
57.8 42.0 27.6 16.1 10.0 7.8 10.0 10.3 10.2 12.4 15.3 18.5 19.1 19.5 18.7 21.1 25.5 18.8 12.8 17.2 15.7 13.3 11.1 10.0 9.9 9.8 9.5 8.8 8.0 7.2 6.7 7.4 7.6 7.6 8.1 9.1 6.7 4.9 4.2 5.5 5.6 5.4 5.4 4.4
45.8 32.2 14.9 7.5 6.9 7.7 6.8 9.0 9.6 10.9 12.8 14.4 19.0 18.7 19.6 18.3 16.5 15.6 12.3 12.5 11.3 11.7 11.8 11.6 10.6 9.7 9.1 9.5 9.1 8.5 8.5 8.6 8.8 8.6 9.4 8.5 8.6 9.2 9.0 6.9 6.0 5.8 6.2 4.9
38.4 14.7 8.6 9.0 6.9 6.9 7.0 6.8 7.0 7.2 9.2 11.0 12.8 17.1 12.1 12.9 13.7 10.5 8.2 10.5 11.8 10.8 8.8 8.2 8.6 8.2 8.0 7.6 6.8 6.5 5.9 5.7 5.9 7.0 8.0 9.3 10.0 9.4 7.7 7.8 9.7 8.9 8.6 7.9